Tracking 18785 objects as of 21-July-2017
HD Live streaming from Space Station
objects crossing your sky now
MAYAK may become the brightest orbital object in the night sky!
Where is MAYAK now?
How to spot MAYAK

IRIDIUM 117

Track IRIDIUM 117 now!
10-day predictions
IRIDIUM 117 is classified as:


NORAD ID: 42808
Int'l Code: 2017-039F
Perigee: 708.0 km
Apogee: 711.1 km
Inclination: 86.5 °
Period: 98.8 minutes
Semi major axis: 7080 km
RCS: Unknown
Launch date: June 25, 2017
Source: United States (US)
Launch site: AIR FORCE WESTERN TEST RANGE (AFWTR)
Your satellite tracking list
Your tracking list is empty





NASA's NSSDC Master Catalog

Two Line Element Set (TLE):
1 42808U 17039F   17201.34427081 +.00000081 +00000-0 +13044-4 0  9997
2 42808 086.5261 273.3166 0002233 115.7915 244.3524 14.57141526003608
Source of the keplerian elements: AFSPC